• In Moldova, Republic
  • List of Countries
  • For 7 days
  • Water Temperature
  • Satellite Maps
  • Weather Map
  • Weather Widgets
  • user-avatar
    Login

    Hourly Weather Solden

    Today, 28 May, Sunday

    Time Temperature Precipitation Wind Pressure Humidity
    00:00 +1°C° 0 mm 0 mps 584 mmHg 96%
    01:00 0°C° 0 mm 0 mps 584 mmHg 96%
    02:00 0°C° 0 mm 0 mps 584 mmHg 96%
    03:00 0°C° 0 mm 0 mps 583 mmHg 96%
    04:00 -1°C° 0 mm 0 mps 583 mmHg 96%
    05:00 +2°C° 0 mm 0 mps 585 mmHg 91%
    06:00 +5°C° 0 mm 0 mps 587 mmHg 86%
    07:00 +9°C° 0 mm 0 mps 589 mmHg 78%
    08:00 +10°C° 0 mm 0 mps 589 mmHg 70%
    09:00 +13°C° 0 mm 1 mps 590 mmHg 62%
    10:00 +15°C° 0 mm 1 mps 590 mmHg 54%
    11:00 +15°C° 0 mm 1 mps 591 mmHg 51%
    12:00 +16°C° 0 mm 1 mps 591 mmHg 49%
    13:00 +18°C° 0 mm 1 mps 591 mmHg 46%
    14:00 +16°C° 0.1 mm 2 mps 591 mmHg 49%
    15:00 +16°C° 0.1 mm 2 mps 590 mmHg 51%
    16:00 +15°C° 0.1 mm 2 mps 590 mmHg 54%
    17:00 +14°C° 0.3 mm 2 mps 589 mmHg 64%
    18:00 +12°C° 0.3 mm 1 mps 588 mmHg 74%
    19:00 +11°C° 0.3 mm 1 mps 588 mmHg 84%
    20:00 +8°C° 0.1 mm 1 mps 587 mmHg 88%
    21:00 +6°C° 0.1 mm 1 mps 586 mmHg 92%
    22:00 +3°C° 0.1 mm 0 mps 585 mmHg 96%
    23:00 +3°C° 0 mm 0 mps 585 mmHg 96%

    Tomorrow, 29 May, Monday

    Time Temperature Precipitation Wind Pressure Humidity
    00:00 +3°C° 0 mm 0 mps 584 mmHg 96%
    01:00 +3°C° 0 mm 0 mps 584 mmHg 97%
    02:00 +2°C° 0 mm 0 mps 584 mmHg 97%
    03:00 +2°C° 0 mm 0 mps 584 mmHg 97%
    04:00 +2°C° 0 mm 0 mps 583 mmHg 97%
    05:00 +4°C° 0 mm 0 mps 585 mmHg 91%
    06:00 +7°C° 0 mm 0 mps 586 mmHg 86%
    07:00 +9°C° 0 mm 0 mps 587 mmHg 80%
    08:00 +11°C° 0 mm 0 mps 588 mmHg 71%
    09:00 +13°C° 0 mm 0 mps 588 mmHg 62%
    10:00 +16°C° 0 mm 1 mps 589 mmHg 53%
    11:00 +16°C° 0.1 mm 1 mps 589 mmHg 52%
    12:00 +18°C° 0.1 mm 1 mps 589 mmHg 50%
    13:00 +17°C° 0.1 mm 2 mps 589 mmHg 49%
    14:00 +17°C° 0.3 mm 2 mps 588 mmHg 54%
    15:00 +16°C° 0.3 mm 2 mps 588 mmHg 59%
    16:00 +15°C° 0.3 mm 2 mps 587 mmHg 64%
    17:00 +14°C° 0.4 mm 1 mps 587 mmHg 72%
    18:00 +13°C° 0.4 mm 1 mps 586 mmHg 80%
    19:00 +11°C° 0.4 mm 1 mps 585 mmHg 88%
    20:00 +10°C° 0.1 mm 1 mps 585 mmHg 91%
    21:00 +8°C° 0.1 mm 1 mps 584 mmHg 94%
    22:00 +6°C° 0.1 mm 1 mps 584 mmHg 97%
    23:00 +5°C° 0.3 mm 0 mps 583 mmHg 97%

    Day after tomorrow, 30 May, Tuesday

    Time Temperature Precipitation Wind Pressure Humidity
    00:00 +5°C° 0.3 mm 0 mps 583 mmHg 97%
    01:00 +5°C° 0.3 mm 0 mps 583 mmHg 97%
    02:00 +4°C° 0.2 mm 0 mps 583 mmHg 97%
    03:00 +4°C° 0.2 mm 0 mps 583 mmHg 97%
    04:00 +4°C° 0.2 mm 0 mps 583 mmHg 97%
    05:00 +6°C° 0.1 mm 0 mps 584 mmHg 93%
    06:00 +7°C° 0.1 mm 0 mps 585 mmHg 89%
    07:00 +9°C° 0.1 mm 0 mps 586 mmHg 85%
    08:00 +11°C° 0.2 mm 0 mps 586 mmHg 78%
    09:00 +13°C° 0.2 mm 1 mps 587 mmHg 72%
    10:00 +15°C° 0.2 mm 1 mps 588 mmHg 66%
    11:00 +15°C° 0.5 mm 1 mps 588 mmHg 65%
    12:00 +15°C° 0.5 mm 1 mps 588 mmHg 65%
    13:00 +16°C° 0.5 mm 1 mps 588 mmHg 65%
    14:00 +15°C° 0.8 mm 1 mps 588 mmHg 67%
    15:00 +15°C° 0.8 mm 1 mps 588 mmHg 69%
    16:00 +15°C° 0.8 mm 1 mps 587 mmHg 71%
    17:00 +14°C° 0.9 mm 1 mps 587 mmHg 77%
    18:00 +12°C° 0.9 mm 1 mps 586 mmHg 84%
    19:00 +11°C° 0.9 mm 1 mps 586 mmHg 90%
    20:00 +10°C° 1 mm 1 mps 586 mmHg 92%
    21:00 +8°C° 1 mm 1 mps 585 mmHg 95%
    22:00 +7°C° 1 mm 1 mps 585 mmHg 98%
    23:00 +7°C° 0.4 mm 1 mps 585 mmHg 98%

    31 May, Wednesday

    Time Temperature Precipitation Wind Pressure Humidity
    00:00 +6°C° 0.4 mm 1 mps 585 mmHg 98%
    01:00 +6°C° 0.4 mm 1 mps 584 mmHg 98%
    02:00 +6°C° 0.1 mm 1 mps 584 mmHg 97%
    03:00 +6°C° 0.1 mm 1 mps 584 mmHg 97%
    04:00 +5°C° 0.1 mm 1 mps 584 mmHg 97%
    05:00 +7°C° 0 mm 1 mps 585 mmHg 93%
    06:00 +7°C° 0 mm 0 mps 586 mmHg 90%
    07:00 +9°C° 0 mm 0 mps 586 mmHg 87%
    08:00 +10°C° 0.1 mm 0 mps 587 mmHg 80%
    09:00 +13°C° 0.1 mm 1 mps 588 mmHg 73%
    10:00 +14°C° 0.1 mm 1 mps 588 mmHg 66%
    11:00 +14°C° 0.4 mm 1 mps 588 mmHg 66%
    12:00 +15°C° 0.4 mm 1 mps 588 mmHg 66%
    13:00 +15°C° 0.4 mm 2 mps 588 mmHg 66%
    14:00 +14°C° 0.8 mm 2 mps 588 mmHg 68%
    15:00 +14°C° 0.8 mm 2 mps 588 mmHg 70%
    16:00 +14°C° 0.8 mm 2 mps 587 mmHg 72%
    17:00 +12°C° 0.8 mm 1 mps 587 mmHg 77%
    18:00 +11°C° 0.8 mm 1 mps 586 mmHg 83%
    19:00 +10°C° 0.8 mm 1 mps 586 mmHg 88%
    20:00 +9°C° 0.5 mm 1 mps 585 mmHg 91%
    21:00 +8°C° 0.5 mm 1 mps 585 mmHg 94%
    22:00 +7°C° 0.5 mm 1 mps 584 mmHg 97%
    23:00 +5°C° 0.3 mm 0 mps 584 mmHg 97%

    1 June, Thursday

    Time Temperature Precipitation Wind Pressure Humidity
    00:00 +5°C° 0.3 mm 0 mps 584 mmHg 97%
    01:00 +4°C° 0.3 mm 0 mps 583 mmHg 97%
    02:00 +4°C° 0.2 mm 0 mps 583 mmHg 97%
    03:00 +3°C° 0.2 mm 0 mps 583 mmHg 97%
    04:00 +3°C° 0.2 mm 0 mps 582 mmHg 98%
    05:00 +4°C° 0.3 mm 0 mps 583 mmHg 94%
    06:00 +6°C° 0.3 mm 0 mps 584 mmHg 90%
    07:00 +7°C° 0.3 mm 0 mps 585 mmHg 86%
    08:00 +9°C° 0.5 mm 1 mps 585 mmHg 81%
    09:00 +10°C° 0.5 mm 1 mps 586 mmHg 76%
    10:00 +11°C° 0.5 mm 1 mps 586 mmHg 70%
    11:00 +11°C° 0.6 mm 1 mps 586 mmHg 70%
    12:00 +12°C° 0.6 mm 1 mps 586 mmHg 70%
    13:00 +12°C° 0.6 mm 1 mps 586 mmHg 70%
    14:00 +12°C° 0.6 mm 1 mps 586 mmHg 71%
    15:00 +11°C° 0.6 mm 1 mps 586 mmHg 72%
    16:00 +11°C° 0.6 mm 1 mps 586 mmHg 74%
    17:00 +10°C° 0.4 mm 1 mps 585 mmHg 79%
    18:00 +10°C° 0.4 mm 1 mps 585 mmHg 84%
    19:00 +9°C° 0.4 mm 1 mps 585 mmHg 89%
    20:00 +7°C° 0.2 mm 1 mps 584 mmHg 91%
    21:00 +5°C° 0.2 mm 0 mps 584 mmHg 93%
    22:00 +3°C° 0.2 mm 0 mps 583 mmHg 96%
    23:00 +3°C° 0 mm 0 mps 583 mmHg 96%

    2 June, Friday

    Time Temperature Precipitation Wind Pressure Humidity
    00:00 +2°C° 0 mm 0 mps 582 mmHg 96%
    01:00 +2°C° 0 mm 0 mps 582 mmHg 97%
    02:00 +1°C° 0 mm 0 mps 582 mmHg 96%
    03:00 +1°C° 0 mm 0 mps 581 mmHg 96%
    04:00 0°C° 0 mm 0 mps 581 mmHg 96%
    05:00 +3°C° 0 mm 0 mps 582 mmHg 91%
    06:00 +5°C° 0 mm 0 mps 584 mmHg 85%
    07:00 +8°C° 0 mm 0 mps 585 mmHg 80%
    08:00 +9°C° 0 mm 0 mps 586 mmHg 71%
    09:00 +12°C° 0 mm 1 mps 587 mmHg 63%
    10:00 +14°C° 0 mm 1 mps 587 mmHg 54%
    11:00 +14°C° 0.1 mm 1 mps 587 mmHg 52%
    12:00 +15°C° 0.1 mm 1 mps 588 mmHg 50%
    13:00 +16°C° 0.1 mm 2 mps 588 mmHg 49%
    14:00 +15°C° 0.3 mm 2 mps 587 mmHg 54%
    15:00 +15°C° 0.3 mm 2 mps 587 mmHg 58%
    16:00 +14°C° 0.3 mm 2 mps 587 mmHg 63%
    17:00 +13°C° 0.5 mm 2 mps 586 mmHg 71%
    18:00 +11°C° 0.5 mm 1 mps 585 mmHg 80%
    19:00 +10°C° 0.5 mm 1 mps 585 mmHg 88%
    20:00 +8°C° 0.2 mm 1 mps 584 mmHg 91%
    21:00 +5°C° 0.2 mm 0 mps 583 mmHg 94%
    22:00 +3°C° 0.2 mm 0 mps 582 mmHg 97%
    23:00 +3°C° 0.1 mm 0 mps 582 mmHg 97%
    Show more